Weather in Morochnoe

Ukraine / Rovno District     51°50′45″N   25°55′32″E
temp.,
°C
wind,
m/s
gust,
m/s
humid.,
%
clouds,
%
prec.,
mm/h
press.,
hPa
HPBL,
m
22 october, fri
fri2200:00+13w91562100 0.1 10031313
03:00+11wsw7165820 0.1 10041289
06:00+11wsw8166283 0.0 10051298
09:00+10wsw8146041 0.0 10071611
12:00+11w813527 0.0 10101680
15:00+12wsw7134339 0.0 10092200
18:00+10wsw61247100 0.0 10091482
21:00+9wsw61345100 0.0 10091174
23 october, sat
sat2300:00+9wsw715475 0.0 10091351
03:00+9w9175518 0.0 10091596
06:00+6w7137340 0.0 10111076
09:00+7w71359100 0.0 10131543
12:00+7w71262100 0.0 10161528
15:00+7w71163100 0.1 10171628
18:00+7w51067100 0.1 1018951
21:00+5w5108072 0.1 1019719
24 october, sun
sun2400:00+7wnw597269 0.1 1020995
03:00+5wnw5983100 0.1 1022686
06:00+3wnw5118344 0.0 1025631
09:00+3wnw5108499 0.0 1027862
12:00+6nw585717 0.0 10281132
15:00+7nw5853100 0.0 10291636
18:00+7nw4850100 0.0 10301026
21:00+4nw2364100 0.0 103252
25 october, mon
mon2500:00+2n2274100 0.0 103318
03:00+2w117872 0.0 103310
06:00+1s118286 0.0 103310
09:00+2sse22795 0.0 103443
12:00+7sse23555 0.0 1033595
15:00+9s34440 0.0 1032920
18:00+6sse34585 0.0 103162
21:00+4sse39665 0.0 1030182
26 october, tue
tue2600:00+3sse3116627 0.0 1030235
03:00+3s4126512 0.0 1029255
06:00+2s3106643 0.0 1027229
09:00+3s41161100 0.0 1027293
12:00+8ssw4745100 0.0 1026432
15:00+11ssw4638100 0.0 1024579
18:00+7ssw3652100 0.0 1023105
21:00+5sw3859100 0.0 1024132